Location: Cluny
(50.9333°N, 112.8167°W)
Time: 14:24:20
(UTC-07:00)

Amateur Radio Satellites - All Passes

Search period start: 23 January 2018 13:54
Search period end: 24 January 2018 13:54
Location: Cluny, 50.9333°N, 112.8167°W

Satellite Date Start Highest point End Downlink Frequencies (MHz)
Time Altitude Azimuth
BUGSAT 1 23 Jan 13:59:05 14:01:52 17° 270° (W) 14:04:40 437.445
ESTCUBE 1 23 Jan 14:02:02 14:04:24 14° 305° (NW) 14:06:46 437.505/2401.250
AO-91 23 Jan 14:08:18 14:10:38 17° 270° (W) 14:13:03 145.960
Oscar 19 23 Jan 14:11:11 14:15:37 28° 267° (W) 14:20:04 437.125/150
50 SAT 23 Jan 14:11:36 14:14:24 29° 97° (E) 14:17:11 437.505
AO-7 23 Jan 14:13:14 14:21:28 66° 62° (ENE) 14:29:45 .
Gurwin Techsat 1B 23 Jan 14:20:37 14:25:17 30° 266° (W) 14:29:58 435.225
MOZHAYETS 4 23 Jan 14:30:57 14:33:31 15° 87° (E) 14:36:04
BEESAT 3 23 Jan 14:32:47 14:34:22 12° 10° (N) 14:35:58 437.485
SPROUT 23 Jan 14:58:19 15:00:23 13° 305° (NW) 15:02:26 437.525
BEESAT 23 Jan 15:05:31 15:08:46 18° 90° (E) 15:11:59 436.000
PCSat 23 Jan 15:10:51 15:14:09 16° 12° (NNE) 15:17:26 145.827
UKube-1 23 Jan 15:10:59 15:15:19 88° 95° (E) 15:19:38 .
AO-85 23 Jan 15:21:12 15:23:55 16° 350° (N) 15:26:46 145.980
SO-50 23 Jan 15:21:58 15:23:00 11° 252° (WSW) 15:24:04 436.795
ITAMSAT 1 23 Jan 15:22:41 15:27:52 86° 250° (WSW) 15:33:05 435.822/435.867
VELOX 1 23 Jan 15:24:30 15:26:48 14° 305° (NW) 15:29:06 145.980
BEESAT 2 23 Jan 15:28:02 15:29:49 12° 10° (N) 15:31:35 435.950
DX 1 23 Jan 15:29:37 15:33:42 41° 293° (WNW) 15:37:46 434.975-435.025
M-CUBED/EXP-1 PRIME 23 Jan 15:36:31 15:40:30 46° 64° (ENE) 15:44:14 437.505
RS-15 23 Jan 15:41:12 15:53:10 68° 39° (NE) 16:04:27 29.354- 29.394
CUTE-I 23 Jan 15:42:21 15:44:09 12° 47° (NE) 15:45:57 437.470
50 SAT 23 Jan 15:43:38 15:45:56 19° 295° (WNW) 15:48:13 437.505
DOVE 4 23 Jan 15:51:07 15:55:07 45° 70° (ENE) 15:59:06 437.250
LilacSat-2 23 Jan 15:57:36 15:57:45 10° 56° (NE) 15:57:52 437.200
ITUPSAT 1 23 Jan 16:04:38 16:09:24 55° 101° (E) 16:14:07 437.325
MOZHAYETS 4 23 Jan 16:06:37 16:11:17 82° 286° (WNW) 16:15:54
AO-7 23 Jan 16:07:09 16:14:44 37° 264° (W) 16:22:22 .
BEESAT 3 23 Jan 16:09:48 16:13:10 26° 33° (NNE) 16:16:31 437.485
NO-84 23 Jan 16:13:10 16:14:55 14° 135° (SE) 16:16:37 435.350 FM
CUBESAT XI-V 23 Jan 16:17:52 16:22:14 39° 97° (E) 16:26:31 437.345
KAITUO 1B 23 Jan 16:20:42 16:21:56 11° 57° (ENE) 16:23:09 145.475/437.950
NUDT-PHONESAT 23 Jan 16:25:40 16:27:06 12° 58° (ENE) 16:28:32 437.300
XW-2F 23 Jan 16:26:34 16:28:59 16° 61° (ENE) 16:31:23 145.980 - 146.000
XW-2D 23 Jan 16:38:16 16:41:18 23° 64° (ENE) 16:44:19 145.860 - 145.880
BEESAT 23 Jan 16:42:14 16:47:02 71° 288° (WNW) 16:51:49 436.000
HO-68 23 Jan 16:47:32 16:53:27 29° 52° (NE) 16:59:22 435.675
UKube-1 23 Jan 16:48:24 16:50:44 14° 305° (NW) 16:53:03 .
PCSat 23 Jan 16:54:16 16:59:13 34° 37° (NE) 17:04:07 145.827
XW-2B 23 Jan 16:55:33 16:58:57 31° 67° (ENE) 17:02:22 145.730 - 145.750
AO-85 23 Jan 17:03:02 17:06:05 17° 15° (NNE) 17:09:16 145.980
BEESAT 2 23 Jan 17:05:19 17:08:49 27° 33° (NNE) 17:12:16 435.950
ITAMSAT 1 23 Jan 17:05:23 17:08:07 14° 273° (W) 17:10:53 435.822/435.867
M-CUBED/EXP-1 PRIME 23 Jan 17:11:48 17:15:02 21° 260° (W) 17:18:08 437.505
KKS-1 23 Jan 17:13:29 17:17:02 23° 93° (E) 17:20:34 437.445
SEEDS 23 Jan 17:16:40 17:18:46 14° 57° (ENE) 17:20:51 437.485
CUTE-I 23 Jan 17:17:57 17:23:05 54° 68° (ENE) 17:28:16 437.470
STARS 23 Jan 17:21:50 17:23:29 12° 87° (E) 17:25:09 437.465
XW-2C 23 Jan 17:25:38 17:29:26 66° 73° (ENE) 17:33:14 145.795 - 145.815
LilacSat-2 23 Jan 17:27:27 17:31:18 75° 74° (ENE) 17:35:10 437.200
DOVE 4 23 Jan 17:29:54 17:33:05 21° 268° (W) 17:36:14 437.250
CUTE 1.7 + AOD 2 23 Jan 17:33:35 17:37:14 28° 65° (ENE) 17:40:52 437.475
ITUPSAT 1 23 Jan 17:43:01 17:46:55 25° 300° (WNW) 17:50:47 437.325
MOZHAYETS 4 23 Jan 17:45:18 17:47:43 14° 306° (NW) 17:50:07
BEESAT 3 23 Jan 17:47:06 17:50:59 59° 235° (SW) 17:54:48 437.485
NO-84 23 Jan 17:48:40 17:51:41 80° 153° (SSE) 17:54:35 435.350 FM
KAITUO 1B 23 Jan 17:51:32 17:55:17 89° 263° (W) 17:59:04 145.475/437.950
RS-15 23 Jan 17:54:15 18:05:20 51° 246° (WSW) 18:15:53 29.354- 29.394
CUBESAT XI-V 23 Jan 17:55:28 17:59:29 30° 296° (WNW) 18:03:29 437.345
NUDT-PHONESAT 23 Jan 17:56:37 18:00:21 84° 254° (WSW) 18:04:06 437.300
XW-2F 23 Jan 17:58:55 18:02:41 58° 260° (W) 18:06:27 145.980 - 146.000
XW-2D 23 Jan 18:11:42 18:15:17 38° 262° (W) 18:18:53 145.860 - 145.880
UWE-3 23 Jan 18:16:42 18:20:40 31° 64° (ENE) 18:24:44 435.000/436.395/437.385
CUBEBUG 2 23 Jan 18:17:38 18:21:57 50° 69° (ENE) 18:26:26 437.445
BEESAT 23 Jan 18:21:44 18:23:59 13° 308° (NW) 18:26:13 436.000
AAUSAT CUBESAT 2 23 Jan 18:22:19 18:25:40 24° 64° (ENE) 18:29:00 437.432
XW-2B 23 Jan 18:29:53 18:33:08 26° 265° (W) 18:36:25 145.730 - 145.750
HO-68 23 Jan 18:33:24 18:40:34 79° 253° (WSW) 18:47:47 435.675
ZACube-1 23 Jan 18:33:25 18:37:09 26° 63° (ENE) 18:40:57 437.345
PCSat 23 Jan 18:37:37 18:42:59 63° 239° (WSW) 18:48:19 145.827
AO-73 23 Jan 18:38:12 18:41:54 26° 63° (ENE) 18:45:39 145.935
BEESAT 2 23 Jan 18:42:50 18:46:49 59° 234° (SW) 18:50:44 435.950
AO-85 23 Jan 18:43:14 18:47:43 39° 37° (NE) 18:52:30 145.980
KKS-1 23 Jan 18:49:32 18:53:50 49° 292° (WNW) 18:58:09 437.445
SEEDS 23 Jan 18:49:36 18:53:49 88° 256° (WSW) 18:58:03 437.485
STRAND 1 23 Jan 18:54:39 18:58:05 18° 88° (E) 19:01:31 437.568
STARS 23 Jan 18:56:02 19:00:30 88° 106° (ESE) 19:04:56 437.465
CUTE-I 23 Jan 18:58:59 19:03:26 27° 267° (W) 19:07:56 437.470
XW-2A 23 Jan 19:00:52 19:04:06 42° 71° (ENE) 19:07:22 145.665 - 145.685
XW-2C 23 Jan 19:02:10 19:04:02 13° 272° (W) 19:05:54 145.795 - 145.815
LilacSat-2 23 Jan 19:04:35 19:06:04 12° 273° (W) 19:07:32 437.200
Oscar 11 23 Jan 19:07:43 19:11:31 30° 65° (ENE) 19:15:20 .
CUTE 1.7 + AOD 2 23 Jan 19:08:59 19:12:57 37° 263° (W) 19:16:56 437.475
NO-84 23 Jan 19:26:16 19:29:00 36° 352° (N) 19:31:41 435.350 FM
ISS 23 Jan 19:39:23 19:40:07 11° 136° (SE) 19:40:50 437.550
UWE-3 23 Jan 19:52:50 19:57:02 38° 264° (W) 20:01:21 435.000/436.395/437.385
CUBEBUG 2 23 Jan 19:55:17 19:58:51 23° 269° (W) 20:02:31 437.445
AAUSAT CUBESAT 2 23 Jan 19:57:01 20:00:55 40° 262° (W) 20:04:51 437.432
Max Valier Satellite 23 Jan 20:02:48 20:04:54 15° 60° (ENE) 20:07:01 145.860
DELFI C3 23 Jan 20:03:29 20:06:29 22° 63° (ENE) 20:09:31 145.870
ZACube-1 23 Jan 20:08:51 20:13:12 46° 262° (W) 20:17:38 437.345
RS-15 23 Jan 20:11:08 20:14:26 12° 271° (W) 20:17:43 29.354- 29.394
AO-73 23 Jan 20:13:32 20:17:53 47° 262° (W) 20:22:19 145.935
FO-29 23 Jan 20:13:52 20:18:41 36° 96° (E) 20:23:30 435.910
EO-88 23 Jan 20:14:06 20:15:48 13° 59° (ENE) 20:17:30 145.990 - 145.960
AO-85 23 Jan 20:23:35 20:28:19 51° 236° (WSW) 20:33:21 145.980
PCSat 23 Jan 20:23:42 20:25:19 11° 259° (WSW) 20:26:55 145.827
HO-68 23 Jan 20:24:50 20:29:28 18° 274° (W) 20:34:08 435.675
SEEDS 23 Jan 20:28:58 20:30:09 11° 274° (W) 20:31:21 437.485
STRAND 1 23 Jan 20:32:43 20:37:53 78° 287° (WNW) 20:43:01 437.568
STARS 23 Jan 20:33:43 20:36:14 15° 304° (NW) 20:38:44 437.465
XW-2A 23 Jan 20:34:50 20:37:00 16° 269° (W) 20:39:11 145.665 - 145.685
Oscar 11 23 Jan 20:43:33 20:47:35 36° 264° (W) 20:51:37 .
nSIGHT-1 23 Jan 20:46:12 20:49:10 38° 153° (SSE) 20:52:09 .
UNISAT 6 23 Jan 21:00:25 21:02:52 14° 86° (E) 21:05:18 437.425
NO-84 23 Jan 21:03:46 21:06:31 44° 14° (NNE) 21:09:16 435.350 FM
ISS 23 Jan 21:12:48 21:15:56 44° 155° (SSE) 21:19:04 437.550
LO-87 23 Jan 21:23:23 21:24:26 11° 57° (ENE) 21:25:29 145.935 - 145.965
Max Valier Satellite 23 Jan 21:34:33 21:38:16 65° 259° (WSW) 21:42:00 145.860
DELFI C3 23 Jan 21:37:16 21:41:00 42° 262° (W) 21:44:45 145.870
EO-88 23 Jan 21:45:17 21:48:55 73° 258° (WSW) 21:52:35 145.990 - 145.960
ESTCUBE 1 23 Jan 21:52:18 21:55:51 23° 61° (ENE) 21:59:24 437.505/2401.250
FO-29 23 Jan 21:59:07 22:03:53 37° 296° (WNW) 22:08:38 435.910
STRAND 1 23 Jan 22:13:18 22:16:17 16° 308° (NW) 22:19:15 437.568
YUBILEINY 23 Jan 22:16:18 22:24:07 38° 84° (E) 22:31:56 435.215
TIGRISAT 23 Jan 22:19:13 22:23:55 63° 101° (ESE) 22:28:34 435.000
nSIGHT-1 23 Jan 22:22:02 22:25:12 82° 352° (N) 22:28:23 .
UNISAT 6 23 Jan 22:35:28 22:40:13 88° 290° (WNW) 22:44:55 437.425
NO-84 23 Jan 22:40:58 22:43:40 42° 214° (SW) 22:46:25 435.350 FM
SPROUT 23 Jan 22:44:14 22:47:15 19° 60° (ENE) 22:50:17 437.525
ISS 23 Jan 22:49:03 22:52:20 80° 356° (N) 22:55:36 437.550
LO-87 23 Jan 22:53:39 22:57:14 85° 255° (WSW) 23:00:52 145.935 - 145.965
VELOX 1 23 Jan 23:13:15 23:16:36 22° 60° (ENE) 23:19:58 145.980
EO-79 23 Jan 23:18:20 23:19:54 12° 86° (E) 23:21:26 145.935-145.965
PRISM 23 Jan 23:20:11 23:24:14 62° 102° (ESE) 23:28:17 437.425
O/OREOS (USA 219) 23 Jan 23:27:10 23:30:10 18° 101° (E) 23:33:10 437.305
ESTCUBE 1 23 Jan 23:27:56 23:32:21 53° 260° (W) 23:36:47 437.505/2401.250
AIST 2D 23 Jan 23:46:15 23:49:44 64° 101° (ESE) 23:53:09 435.315
POLYITAN 1 23 Jan 23:52:44 23:56:18 25° 93° (E) 23:59:50 437.675
TIGRISAT 23 Jan 23:56:39 00:00:12 22° 300° (WNW) 00:03:44 435.000
nSIGHT-1 23 Jan 23:58:16 00:01:26 89° 192° (SSW) 00:04:37 .
NANOSAT C BR1 24 Jan 00:04:54 00:08:38 28° 95° (E) 00:12:20 145.865
YUBILEINY 24 Jan 00:11:50 00:20:33 62° 287° (WNW) 00:29:16 435.215
UNISAT 6 24 Jan 00:13:30 00:16:15 16° 304° (NW) 00:18:59 437.425
SPROUT 24 Jan 00:18:31 00:22:43 60° 258° (WSW) 00:26:59 437.525
QB50P2 24 Jan 00:22:22 00:26:35 52° 100° (E) 00:30:46 145.880/145.840
ISS 24 Jan 00:25:36 00:28:52 84° 196° (SSW) 00:32:09 437.550
UKube-1 24 Jan 00:35:23 00:38:32 20° 59° (ENE) 00:41:42 .
Oscar 19 24 Jan 00:39:35 00:41:19 12° 84° (E) 00:43:02 437.125/150
50 SAT 24 Jan 00:40:40 00:43:03 21° 65° (ENE) 00:45:27 437.505
DUCHIFAT 1 24 Jan 00:46:15 00:50:30 62° 102° (ESE) 00:54:42 145.980
VELOX 1 24 Jan 00:48:27 00:52:44 53° 259° (W) 00:57:03 145.980
EO-79 24 Jan 00:51:58 00:56:17 90° 271° (W) 01:00:34 145.935-145.965
Gurwin Techsat 1B 24 Jan 00:52:57 00:55:01 12° 84° (E) 00:57:04 435.225
DX 1 24 Jan 00:53:37 00:57:41 42° 68° (ENE) 01:01:48 434.975-435.025
PRISM 24 Jan 00:56:23 00:59:05 17° 301° (WNW) 01:01:48 437.425
O/OREOS (USA 219) 24 Jan 01:04:37 01:09:06 66° 301° (WNW) 01:13:35 437.305
AIST 2D 24 Jan 01:20:49 01:22:25 13° 300° (WNW) 01:24:01 435.315
POLYITAN 1 24 Jan 01:28:09 01:32:14 42° 292° (WNW) 01:36:16 437.675
BUGSAT 1 24 Jan 01:33:45 01:37:53 48° 100° (E) 01:42:00 437.445
nSIGHT-1 24 Jan 01:34:34 01:37:23 29° 211° (SSW) 01:40:12 .
MOZHAYETS 4 24 Jan 01:36:59 01:40:49 26° 62° (ENE) 01:44:39
ITUPSAT 1 24 Jan 01:40:12 01:43:35 19° 57° (ENE) 01:46:58 437.325
NANOSAT C BR1 24 Jan 01:40:28 01:44:23 36° 294° (WNW) 01:48:17 145.865
AO-91 24 Jan 01:49:46 01:54:11 53° 100° (E) 01:59:02 145.960
CUBESAT XI-V 24 Jan 01:51:52 01:53:41 12° 53° (NE) 01:55:31 437.345
QB50P2 24 Jan 01:58:47 02:02:04 22° 299° (WNW) 02:05:20 145.880/145.840
ISS 24 Jan 02:02:16 02:05:05 26° 213° (SSW) 02:07:54 437.550
UKube-1 24 Jan 02:09:58 02:14:11 57° 258° (WSW) 02:18:27 .
AO-7 24 Jan 02:11:29 02:15:14 13° 81° (E) 02:18:57 .
50 SAT 24 Jan 02:11:59 02:14:38 26° 263° (W) 02:17:19 437.505
YUBILEINY 24 Jan 02:13:54 02:19:34 18° 313° (NW) 02:25:13 435.215
BEESAT 24 Jan 02:16:10 02:20:31 36° 64° (ENE) 02:24:54 436.000
Oscar 19 24 Jan 02:16:23 02:21:35 72° 104° (ESE) 02:26:43 437.125/150
DUCHIFAT 1 24 Jan 02:22:46 02:25:44 19° 300° (WNW) 02:28:41 145.980
EO-79 24 Jan 02:29:12 02:31:24 14° 304° (NW) 02:33:36 145.935-145.965
DX 1 24 Jan 02:30:29 02:34:03 25° 266° (W) 02:37:38 434.975-435.025
Gurwin Techsat 1B 24 Jan 02:30:34 02:35:55 73° 103° (ESE) 02:41:13 435.225
O/OREOS (USA 219) 24 Jan 02:46:56 02:49:23 14° 322° (NW) 02:51:52 437.305
BUGSAT 1 24 Jan 03:09:38 03:12:58 23° 298° (WNW) 03:16:17 437.445
MOZHAYETS 4 24 Jan 03:13:14 03:17:43 48° 261° (W) 03:22:16
ITUPSAT 1 24 Jan 03:16:06 03:20:53 74° 256° (WSW) 03:25:44 437.325
CUBESAT XI-V 24 Jan 03:25:33 03:30:13 68° 73° (ENE) 03:34:52 437.345
AO-91 24 Jan 03:26:49 03:30:25 24° 296° (WNW) 03:34:18 145.960
ITAMSAT 1 24 Jan 03:30:54 03:34:59 23° 92° (E) 03:39:03 435.822/435.867
BEESAT 24 Jan 03:53:57 03:58:17 35° 263° (W) 04:02:41 436.000
Oscar 19 24 Jan 03:56:32 04:00:25 22° 303° (WNW) 04:04:17 437.125/150
SO-50 24 Jan 04:00:32 04:02:08 12° 109° (ESE) 04:03:45 436.795
AO-7 24 Jan 04:01:37 04:09:55 59° 104° (ESE) 04:18:06 .
Gurwin Techsat 1B 24 Jan 04:11:20 04:15:22 22° 303° (WNW) 04:19:23 435.225
KKS-1 24 Jan 04:15:56 04:20:01 38° 66° (ENE) 04:24:09 437.445
STARS 24 Jan 04:22:17 04:25:34 21° 60° (ENE) 04:28:51 437.465
M-CUBED/EXP-1 PRIME 24 Jan 04:46:08 04:46:47 10° 94° (E) 04:47:26 437.505
ITUPSAT 1 24 Jan 04:58:20 04:59:34 11° 275° (W) 05:00:50 437.325
CUBESAT XI-V 24 Jan 05:04:53 05:08:03 18° 271° (W) 05:11:13 437.345
ITAMSAT 1 24 Jan 05:09:43 05:14:52 62° 291° (WNW) 05:20:00 435.822/435.867
DOVE 4 24 Jan 05:21:11 05:25:32 65° 102° (ESE) 05:30:07 437.250
XW-2F 24 Jan 05:28:08 05:28:45 10° 86° (E) 05:29:22 145.980 - 146.000
CUTE-I 24 Jan 05:31:08 05:33:54 14° 86° (E) 05:36:38 437.470
SO-50 24 Jan 05:37:18 05:41:45 73° 129° (SE) 05:46:20 436.795
XW-2D 24 Jan 05:39:39 05:42:00 16° 90° (E) 05:44:20 145.860 - 145.880
KKS-1 24 Jan 05:52:51 05:56:40 28° 265° (W) 06:00:31 437.445
AO-7 24 Jan 05:54:44 06:02:30 44° 305° (NW) 06:10:13 .
XW-2B 24 Jan 05:56:55 05:59:56 22° 93° (E) 06:02:55 145.730 - 145.750
HO-68 24 Jan 05:57:04 06:01:12 16° 84° (E) 06:05:18 435.675
STARS 24 Jan 05:57:16 06:01:33 56° 258° (WSW) 06:05:53 437.465
STRAND 1 24 Jan 06:14:57 06:19:43 41° 65° (ENE) 06:24:30 437.568
RS-15 24 Jan 06:14:59 06:22:57 21° 96° (E) 06:30:49 29.354- 29.394
M-CUBED/EXP-1 PRIME 24 Jan 06:18:20 06:21:41 64° 293° (WNW) 06:24:54 437.505
XW-2C 24 Jan 06:27:05 06:30:45 47° 99° (E) 06:34:22 145.795 - 145.815
LilacSat-2 24 Jan 06:29:43 06:33:28 55° 101° (E) 06:37:09 437.200
SEEDS 24 Jan 06:30:21 06:31:34 11° 86° (E) 06:32:47 437.485
FO-29 24 Jan 06:31:12 06:36:44 33° 62° (ENE) 06:41:47 435.910
CUTE 1.7 + AOD 2 24 Jan 06:48:34 06:52:10 26° 94° (E) 06:55:43 437.475
ITAMSAT 1 24 Jan 06:51:01 06:53:22 13° 311° (NW) 06:55:43 435.822/435.867
KAITUO 1B 24 Jan 06:51:13 06:54:54 63° 101° (E) 06:58:32 145.475/437.950
NUDT-PHONESAT 24 Jan 06:55:09 06:58:49 66° 102° (ESE) 07:02:26 437.300
XW-2F 24 Jan 06:59:39 07:03:24 81° 285° (WNW) 07:07:07 145.980 - 146.000
DOVE 4 24 Jan 06:59:50 07:02:52 19° 300° (WNW) 07:06:00 437.250
CUTE-I 24 Jan 07:09:25 07:14:47 82° 105° (ESE) 07:20:08 437.470
XW-2D 24 Jan 07:12:48 07:16:29 52° 288° (WNW) 07:20:07 145.860 - 145.880
SO-50 24 Jan 07:18:44 07:22:39 28° 330° (NNW) 07:26:40 436.795
XW-2B 24 Jan 07:30:44 07:34:12 35° 292° (WNW) 07:37:38 145.730 - 145.750
AAUSAT CUBESAT 2 24 Jan 07:34:01 07:37:13 22° 92° (E) 07:40:25 437.432
UWE-3 24 Jan 07:36:55 07:41:11 33° 95° (E) 07:45:22 435.000/436.395/437.385
CUBEBUG 2 24 Jan 07:39:23 07:44:07 58° 100° (E) 07:48:47 437.445
HO-68 24 Jan 07:43:03 07:50:14 72° 105° (ESE) 07:57:23 435.675
TIGRISAT 24 Jan 07:48:08 07:50:49 16° 56° (NE) 07:53:34 435.000
AO-7 24 Jan 07:48:33 07:53:13 16° 330° (NNW) 07:57:53 .
XW-2A 24 Jan 07:50:04 07:52:45 22° 94° (E) 07:55:24 145.665 - 145.685
O/OREOS (USA 219) 24 Jan 07:51:50 07:54:43 17° 40° (NE) 07:57:36 437.305
ZACube-1 24 Jan 07:52:09 07:56:00 26° 92° (E) 07:59:46 437.345
STRAND 1 24 Jan 07:54:24 07:58:59 33° 265° (W) 08:03:37 437.568
AO-73 24 Jan 07:56:31 08:00:19 25° 92° (E) 08:04:01 145.935
XW-2C 24 Jan 08:01:58 08:04:37 18° 298° (WNW) 08:07:15 145.795 - 145.815
UNISAT 6 24 Jan 08:03:31 08:06:59 22° 60° (ENE) 08:10:31 437.425
SEEDS 24 Jan 08:03:42 08:07:54 89° 264° (W) 08:12:03 437.485
LilacSat-2 24 Jan 08:04:54 08:07:21 17° 299° (WNW) 08:09:48 437.200
FO-29 24 Jan 08:15:23 08:21:42 53° 260° (W) 08:27:21 435.910
YUBILEINY 24 Jan 08:19:10 08:26:13 26° 56° (NE) 08:33:12 435.215
RS-15 24 Jan 08:20:58 08:33:06 67° 121° (ESE) 08:44:59 29.354- 29.394
CUTE 1.7 + AOD 2 24 Jan 08:24:11 08:28:05 37° 292° (WNW) 08:31:57 437.475
Oscar 11 24 Jan 08:25:23 08:29:12 29° 94° (E) 08:32:59 .
KAITUO 1B 24 Jan 08:26:22 08:28:25 14° 300° (WNW) 08:30:28 145.475/437.950
NUDT-PHONESAT 24 Jan 08:30:13 08:32:11 14° 300° (WNW) 08:34:06 437.300
XW-2F 24 Jan 08:36:28 08:36:49 10° 304° (NW) 08:37:10 145.980 - 146.000
PRISM 24 Jan 08:41:27 08:43:09 12° 55° (NE) 08:44:52 437.425
CUTE-I 24 Jan 08:50:26 08:54:15 20° 305° (NW) 08:58:02 437.470
SO-50 24 Jan 09:01:48 09:04:34 15° 354° (N) 09:07:21 436.795
AAUSAT CUBESAT 2 24 Jan 09:08:57 09:12:52 44° 291° (WNW) 09:16:46 437.432
DELFI C3 24 Jan 09:09:22 09:11:58 17° 90° (E) 09:14:33 145.870
UWE-3 24 Jan 09:13:22 09:17:38 36° 294° (WNW) 09:21:51 435.000/436.395/437.385
CUBEBUG 2 24 Jan 09:16:37 09:20:21 23° 299° (WNW) 09:24:05 437.445
BEESAT 3 24 Jan 09:17:29 09:21:16 42° 122° (ESE) 09:25:02 437.485
TIGRISAT 24 Jan 09:22:21 09:26:51 87° 259° (WSW) 09:31:30 435.000
XW-2A 24 Jan 09:22:30 09:25:28 29° 292° (WNW) 09:28:23 145.665 - 145.685
PCSat 24 Jan 09:24:00 09:29:04 42° 116° (ESE) 09:34:10 145.827
ZACube-1 24 Jan 09:28:06 09:32:26 43° 292° (WNW) 09:36:41 437.345
O/OREOS (USA 219) 24 Jan 09:30:21 09:34:52 82° 62° (ENE) 09:39:21 437.305
HO-68 24 Jan 09:31:22 09:37:29 32° 306° (NW) 09:43:35 435.675
AO-73 24 Jan 09:32:23 09:36:44 44° 291° (WNW) 09:40:58 145.935
UNISAT 6 24 Jan 09:38:53 09:43:19 57° 259° (W) 09:47:53 437.425
SEEDS 24 Jan 09:41:00 09:42:56 13° 304° (WNW) 09:44:52 437.485
QB50P2 24 Jan 09:47:01 09:48:28 12° 54° (NE) 09:49:57 145.880/145.840
Oscar 11 24 Jan 10:01:26 10:05:23 35° 293° (WNW) 10:09:18 .
DUCHIFAT 1 24 Jan 10:09:31 10:11:30 13° 55° (NE) 10:13:30 145.980
PRISM 24 Jan 10:13:43 10:17:46 86° 75° (ENE) 10:21:51 437.425
EO-79 24 Jan 10:14:45 10:17:38 18° 59° (ENE) 10:20:33 145.935-145.965
BEESAT 2 24 Jan 10:15:03 10:18:53 45° 123° (ESE) 10:22:46 435.950
YUBILEINY 24 Jan 10:15:34 10:24:23 89° 81° (E) 10:33:06 435.215
AIST 2D 24 Jan 10:24:37 10:28:01 49° 72° (ENE) 10:31:25 435.315
Max Valier Satellite 24 Jan 10:32:52 10:36:36 85° 99° (E) 10:40:17 145.860
RS-15 24 Jan 10:34:01 10:46:08 58° 328° (NNW) 10:57:55 29.354- 29.394
EO-88 24 Jan 10:42:05 10:45:44 72° 103° (ESE) 10:49:20 145.990 - 145.960
DELFI C3 24 Jan 10:43:10 10:47:01 53° 289° (WNW) 10:50:51 145.870
SO-50 24 Jan 10:43:20 10:46:42 19° 19° (NNE) 10:50:07 436.795
AO-85 24 Jan 10:44:35 10:46:50 15° 110° (ESE) 10:49:11 145.980
POLYITAN 1 24 Jan 10:49:36 10:53:28 35° 66° (ENE) 10:57:23 437.675
BEESAT 3 24 Jan 10:55:13 10:58:52 33° 323° (NW) 11:02:31 437.485
BUGSAT 1 24 Jan 10:57:00 10:57:18 10° 52° (NE) 10:57:37 437.445
NANOSAT C BR1 24 Jan 11:01:16 11:05:13 40° 67° (ENE) 11:09:12 145.865
TIGRISAT 24 Jan 11:02:27 11:04:17 12° 275° (W) 11:06:08 435.000
PCSat 24 Jan 11:07:17 11:12:29 44° 317° (NW) 11:17:42 145.827
O/OREOS (USA 219) 24 Jan 11:11:17 11:13:38 14° 261° (W) 11:15:58 437.305
ESTCUBE 1 24 Jan 11:15:32 11:19:07 23° 92° (E) 11:22:40 437.505/2401.250
QB50P2 24 Jan 11:19:16 11:23:30 73° 73° (ENE) 11:27:47 145.880/145.840
HO-68 24 Jan 11:22:47 11:23:05 10° 330° (NNW) 11:23:23 435.675
AO-7 24 Jan 11:27:51 11:31:42 14° 25° (NNE) 11:35:33 .
DUCHIFAT 1 24 Jan 11:42:16 11:46:29 86° 78° (ENE) 11:50:46 145.980
LO-87 24 Jan 11:48:29 11:52:05 58° 100° (E) 11:55:40 145.935 - 145.965
EO-79 24 Jan 11:48:45 11:52:57 65° 258° (WSW) 11:57:13 145.935-145.965
PRISM 24 Jan 11:52:25 11:53:38 11° 273° (W) 11:54:53 437.425
BEESAT 2 24 Jan 11:53:03 11:56:43 32° 323° (NW) 12:00:26 435.950
AIST 2D 24 Jan 11:59:25 12:01:27 15° 270° (W) 12:03:30 435.315
SPROUT 24 Jan 11:59:44 12:02:31 17° 89° (E) 12:05:18 437.525
Oscar 19 24 Jan 11:59:56 12:04:25 30° 61° (ENE) 12:08:54 437.125/150
Max Valier Satellite 24 Jan 12:08:32 12:09:49 12° 303° (WNW) 12:11:06 145.860
YUBILEINY 24 Jan 12:13:32 12:20:03 24° 284° (WNW) 12:26:33 435.215
EO-88 24 Jan 12:17:11 12:18:51 13° 301° (WNW) 12:20:31 145.990 - 145.960
Gurwin Techsat 1B 24 Jan 12:17:46 12:22:28 33° 62° (ENE) 12:27:11 435.225
AO-85 24 Jan 12:22:27 12:26:32 84° 312° (NW) 12:30:59 145.980
SO-50 24 Jan 12:23:34 12:28:09 52° 42° (NE) 12:32:48 436.795
POLYITAN 1 24 Jan 12:25:33 12:29:17 29° 265° (W) 12:33:04 437.675
BUGSAT 1 24 Jan 12:27:44 12:31:48 65° 73° (ENE) 12:35:58 437.445
VELOX 1 24 Jan 12:33:40 12:36:55 20° 91° (E) 12:40:11 145.980
BEESAT 3 24 Jan 12:35:33 12:37:30 13° 345° (NNW) 12:39:28 437.485
NANOSAT C BR1 24 Jan 12:37:31 12:41:02 25° 266° (W) 12:44:36 145.865
RS-15 24 Jan 12:50:08 13:01:31 42° 0° (N) 13:12:26 29.354- 29.394
ESTCUBE 1 24 Jan 12:51:50 12:56:10 48° 291° (WNW) 13:00:28 437.505/2401.250
AO-91 24 Jan 12:52:33 12:55:58 71° 74° (ENE) 12:59:41 145.960
PCSat 24 Jan 12:53:36 12:57:16 18° 341° (NNW) 13:00:57 145.827
QB50P2 24 Jan 12:57:28 12:59:48 14° 272° (W) 13:02:09 145.880/145.840
AO-7 24 Jan 13:14:45 13:22:07 36° 50° (NE) 13:29:30 .
ITAMSAT 1 24 Jan 13:18:09 13:20:06 12° 48° (NE) 13:22:03 435.822/435.867
DUCHIFAT 1 24 Jan 13:21:05 13:22:46 12° 273° (W) 13:24:27 145.980
LO-87 24 Jan 13:22:55 13:25:04 15° 299° (WNW) 13:27:13 145.935 - 145.965
BEESAT 2 24 Jan 13:33:34 13:35:36 13° 346° (NNW) 13:37:38 435.950
SPROUT 24 Jan 13:34:33 13:38:50 64° 288° (WNW) 13:43:05 437.525
Oscar 19 24 Jan 13:38:30 13:43:32 49° 260° (W) 13:48:36 437.125/150
